This is the latest recevied weather packets stored in our database for station/object SIILIN. If no packets are shown the sender has not sent any weather packets the latest 10 day(s).
| Time | Temp. | Humidity | Pressure | Rain* | Wind** | Luminosity | Snow |
|---|---|---|---|---|---|---|---|
| 1777103191 | 5.56° C | 69% | 990.7 hPa | - | - | - | - |
| 1777101991 | 5.56° C | 70% | 990.9 hPa | - | - | - | - |
| 1777100790 | 5.56° C | 69% | 991.1 hPa | - | - | - | - |
| 1777099590 | 5.56° C | 70% | 991.3 hPa | - | - | - | - |
| 1777098391 | 5.56° C | 69% | 991.6 hPa | - | - | - | - |
| 1777097190 | 5.56° C | 67% | 991.8 hPa | - | - | - | - |
| 1777095990 | 5° C | 73% | 992 hPa | - | - | - | - |
| 1777094790 | 5° C | 74% | 992.2 hPa | - | - | - | - |
| 1777093590 | 5° C | 74% | 992.5 hPa | - | - | - | - |
| 1777092390 | 5° C | 74% | 992.7 hPa | - | - | - | - |
| 1777091190 | 4.44° C | 75% | 992.9 hPa | - | - | - | - |
| 1777089989 | 4.44° C | 73% | 993.3 hPa | - | - | - | - |
| 1777088790 | 5° C | 73% | 993.8 hPa | - | - | - | - |
| 1777087590 | 5° C | 72% | 994.2 hPa | - | - | - | - |
| 1777086390 | 5° C | 72% | 994.5 hPa | - | - | - | - |
| 1777085189 | 5° C | 69% | 994.9 hPa | - | - | - | - |
| 1777083990 | 5° C | 69% | 995.5 hPa | - | - | - | - |
| 1777082789 | 5° C | 70% | 996 hPa | - | - | - | - |
| 1777081589 | 5° C | 67% | 996.3 hPa | - | - | - | - |
| 1777080389 | 5° C | 71% | 996.7 hPa | - | - | - | - |
| 1777079189 | 4.44° C | 70% | 997.2 hPa | - | - | - | - |
| 1777077989 | 4.44° C | 70% | 997.7 hPa | - | - | - | - |
| 1777076789 | 5° C | 67% | 998.1 hPa | - | - | - | - |
| 1777075589 | 5° C | 63% | 998.5 hPa | - | - | - | - |
| 1777074389 | 5° C | 63% | 999 hPa | - | - | - | - |
* Rain since midnight (hover to see other rain measurements)
** Current wind speed in m/s (hover to see current wind gust speed)